Location: Nashville
(36.1660°N, 86.7840°W)
Time: 02:35:53
(UTC-06:00)

Vanguard 2 Rocket - Visible Passes

Search period start: 28 January 2022 00:00
Search period end: 07 February 2022 00:00
Orbit: 553 x 3325 km, 32.9° (Epoch: 27 January)

Date Brightness Start Highest point End Pass type
(mag) Time Alt. Az. Time Alt. Az. Time Alt. Az.
28 Jan 10.4 00:52:50 27° E 00:52:50 27° E 01:00:04 10° E visible
28 Jan 9.2 02:58:36 80° S 02:58:42 80° S 03:19:22 10° E visible
28 Jan 9.7 05:04:21 27° W 05:17:26 69° SSW 05:36:24 10° ESE visible
28 Jan 10.9 23:56:11 11° E 23:56:11 11° E 23:56:49 10° E visible
29 Jan 9.6 02:01:57 56° E 02:01:57 56° E 02:16:40 10° E visible
29 Jan 9.4 04:07:43 49° W 04:14:49 75° SSW 04:34:57 10° ESE visible
29 Jan 10.0 06:14:17 10° W 06:32:46 50° SSW 06:49:45 10° SE visible
30 Jan 10.2 01:05:19 31° E 01:05:19 31° E 01:13:38 10° E visible
30 Jan 9.1 03:11:05 77° SW 03:12:15 79° S 03:32:52 10° ESE visible
30 Jan 9.8 05:16:51 23° W 05:30:35 60° SSW 05:49:18 10° SE visible
31 Jan 10.8 00:08:43 14° E 00:08:43 14° E 00:10:25 10° E visible
31 Jan 9.5 02:14:28 61° ESE 02:14:28 61° ESE 02:30:13 10° E visible
31 Jan 9.4 04:20:14 43° W 04:28:10 68° SSW 04:48:06 10° ESE visible
01 Feb 10.1 01:17:54 35° E 01:17:54 35° E 01:27:10 10° E visible
01 Feb 9.1 03:23:40 70° SW 03:25:43 74° SSW 03:46:11 10° ESE visible
01 Feb 9.9 05:29:26 19° W 05:43:34 49° SSW 06:01:44 10° SE visible
02 Feb 10.7 00:21:21 16° E 00:21:21 16° E 00:23:58 10° E visible
02 Feb 9.4 02:27:07 64° ESE 02:27:07 64° ESE 02:43:40 10° ESE visible
02 Feb 9.5 04:32:53 37° W 04:41:22 58° SSW 05:00:53 10° SE visible
03 Feb 10.0 01:30:36 37° E 01:30:36 37° E 01:40:42 10° E visible
03 Feb 9.2 03:36:23 61° SW 03:39:06 66° SSW 03:59:15 10° ESE visible
03 Feb 10.1 05:42:10 14° W 05:56:26 39° SW 06:13:35 10° SSE visible
04 Feb 10.6 00:34:08 18° E 00:34:08 18° E 00:37:30 10° E visible
04 Feb 9.3 02:39:55 65° SE 02:39:55 65° SE 02:56:57 10° ESE visible
04 Feb 9.7 04:45:42 31° W 04:54:28 48° SSW 05:13:10 10° SE visible
05 Feb 9.9 01:43:29 40° ESE 01:43:29 40° ESE 01:54:07 10° ESE visible
05 Feb 9.3 03:49:16 52° SW 03:52:23 56° SSW 04:11:55 10° SE visible
05 Feb 10.3 05:55:03 10° W 06:09:16 29° SW 06:24:35 10° S visible
06 Feb 10.6 00:47:05 19° E 00:47:05 19° E 00:51:01 10° E visible
06 Feb 9.3 02:52:52 60° SSE 02:52:52 60° SSE 03:09:56 10° ESE visible
06 Feb 9.8 04:58:40 25° WSW 05:07:29 37° SW 05:24:49 10° SSE visible
